STARLINK-5892, 55954

Orbit data source: Space-Track

STARLINK-5892, 55954 is a payload satellite owned by SpaceX/Seattle (US) in LEO that was launched on Fri, 17 Mar 2023 UTC via an FALCON 9 launch vehicle from the Air Force Western Test Range (AFWTR). Payload-class satellites include a variety of spacecraft equipped with specific instruments for various scientific and technological missions. These include communications satellites like Starlink; space stations such as the ISS; scientific satellites like the Hubble; Earth observation satellites from companies like Planet Labs, Umbra, and HawkEye 360; GPS; miniature CubeSats for education and research; and military/defense satellites.

Loading next visibility...
Identifier
55954, 2023-037AS
Orbit
LEO
Country
Flag of USUS
Related business
Manufacturer
SpaceX/Seattle
Mission
Operational Commercial Communications
Bus & Motor
STARLINK, Unknown motor
Mass
305 kg wet, ~290 kg dry
Launch date (UTC)
2023-03-17 (3 years ago)
Launch vehicle
FALCON 9
Launch site
Air Force Western Test Range (AFWTR)
Object type
Payload
Rocket body
Debris
Shape & HBR
Box + 1 Pan, 10.1 m
Radar Cross Section
11.087 m², Large (>1 m²)

Expand to show TLE details & history
Last TLE update: 2 days ago

TLE from 2 days ago
0 STARLINK-5892
1 55954U 23037AS  26170.95863156  .00024488  00000-0  20592-2 0  9998
2 55954  69.9991   6.5393 0002518 263.0045  97.0827 14.98211976179799
Epoch: 2026-06-19T23:00Z
TLE epoch observation values (Epoch: 2026-06-19T23:00:25.766Z)
Latitude
-0.0001°
Longitude
113.25177°
Altitude
575.061 km
Speed
7.573 km/s
True Right ascension
00h 26m 09s
True Declination
0° 00' 00"
Sunlit
Object was in daylight at epoch
Visualization orbit readout
Latitude
Unknown
Longitude
Unknown
Altitude
Unknown
Speed
Unknown
Apparent Right ascension
Unknown
Apparent Declination
Unknown
Sunlit
N/A
Visualization observer readout
Local Sidereal Time
21:52:38
Azimuth
Unknown
Elevation
Unknown
Doppler factor
Unknown
Orbital elements
Apogee altitude
572.119 km
Perigee altitude
568.62 km
Semi-major axis
6,948.506 km
Eccentricity
0.00025
Inclination
69.9991°
RAAN
6.5393°
Arg. of periapsis
263.0045°
True anomaly
97.11133°
Mean anomaly
97.0827°
Eccentric anomaly
97.09702°
Mean motion
3.74719 °/min
Orbital period
96.07 mins
BSTAR
0.0020592
Loading maneuver chart data...
Computing Atmospheric mass density...

Documentation

Showing up to 5 results
|